Time,TemperatureF,DewpointF,PressureIn,WindDirection,WindDirectionDegrees,WindSpeedMPH,WindSpeedGustMPH,Humidity,HourlyPrecipIn,Conditions,Clouds,dailyrainin,SoftwareType,DateUTC
2013-03-14 00:03:00,34.9,14.1,29.24,WSW,257,0.0,0.0,42,0.00,,---,0.00,VWS V14.01,2013-03-14 05:03:00,
2013-03-14 00:09:00,35.1,14.3,29.24,ESE,115,0.0,0.0,42,0.00,,---,0.00,VWS V14.01,2013-03-14 05:09:00,
2013-03-14 00:14:00,35.1,14.3,29.24,East,97,0.0,0.0,42,0.00,,---,0.00,VWS V14.01,2013-03-14 05:14:00,
2013-03-14 00:19:00,35.2,15.0,29.24,SE,136,0.0,0.0,43,0.00,,---,0.00,VWS V14.01,2013-03-14 05:19:00,
2013-03-14 00:24:00,35.2,15.0,29.24,SSW,209,0.0,0.0,43,0.00,,---,0.00,VWS V14.01,2013-03-14 05:24:00,
2013-03-14 00:29:00,35.2,15.0,29.24,ESE,110,0.0,0.0,43,0.00,,---,0.00,VWS V14.01,2013-03-14 05:29:00,
2013-03-14 00:35:00,35.2,15.0,29.24,South,186,0.0,0.0,43,0.00,,---,0.00,VWS V14.01,2013-03-14 05:35:00,
2013-03-14 00:40:00,35.2,15.0,29.24,ENE,75,0.0,0.0,43,0.00,,---,0.00,VWS V14.01,2013-03-14 05:40:00,
2013-03-14 00:45:00,35.1,14.8,29.24,SSE,162,0.0,0.0,43,0.00,,---,0.00,VWS V14.01,2013-03-14 05:45:00,
2013-03-14 00:50:00,35.1,15.4,29.24,SSW,193,0.0,0.0,44,0.00,,---,0.00,VWS V14.01,2013-03-14 05:50:00,
2013-03-14 00:55:00,35.1,15.4,29.24,ESE,120,0.0,0.0,44,0.00,,---,0.00,VWS V14.01,2013-03-14 05:55:00,
2013-03-14 01:01:00,35.1,15.4,29.24,SE,138,0.0,0.0,44,0.00,,---,0.00,VWS V14.01,2013-03-14 06:01:00,
2013-03-14 01:07:00,34.9,15.2,29.24,ESE,109,0.0,0.0,44,0.00,,---,0.00,VWS V14.01,2013-03-14 06:07:00,
2013-03-14 01:12:00,34.9,15.2,29.24,ESE,118,0.0,0.0,44,0.00,,---,0.00,VWS V14.01,2013-03-14 06:12:00,
2013-03-14 01:17:00,34.9,15.2,29.21,SE,140,0.0,0.0,44,0.00,,---,0.00,VWS V14.01,2013-03-14 06:17:00,
2013-03-14 01:23:00,34.7,15.0,29.21,SE,140,0.0,0.0,44,0.00,,---,0.00,VWS V14.01,2013-03-14 06:23:00,
2013-03-14 01:28:00,34.3,15.2,29.21,SSE,164,0.0,0.0,45,0.00,,---,0.00,VWS V14.01,2013-03-14 06:28:00,
2013-03-14 01:34:00,34.3,15.2,29.21,SSE,164,0.0,0.0,45,0.00,,---,0.00,VWS V14.01,2013-03-14 06:34:00,
2013-03-14 01:40:00,34.3,15.2,29.21,SSE,164,0.0,0.0,45,0.00,,---,0.00,VWS V14.01,2013-03-14 06:40:00,
2013-03-14 01:45:00,34.2,15.6,29.21,SE,135,0.0,0.0,46,0.00,,---,0.00,VWS V14.01,2013-03-14 06:45:00,
2013-03-14 01:51:00,34.3,15.7,29.21,SE,129,0.0,0.0,46,0.00,,---,0.00,VWS V14.01,2013-03-14 06:51:00,
2013-03-14 01:57:00,34.3,15.7,29.21,ENE,70,0.0,0.0,46,0.00,,---,0.00,VWS V14.01,2013-03-14 06:57:00,
2013-03-14 02:02:00,34.3,15.7,29.21,South,189,0.0,0.0,46,0.00,,---,0.00,VWS V14.01,2013-03-14 07:02:00,
2013-03-14 02:08:00,34.3,15.7,29.21,ESE,122,0.0,0.0,46,0.00,,---,0.00,VWS V14.01,2013-03-14 07:08:00,
2013-03-14 02:13:00,34.3,15.7,29.21,WNW,285,0.0,0.0,46,0.00,,---,0.00,VWS V14.01,2013-03-14 07:13:00,
2013-03-14 02:19:00,34.3,16.2,29.21,East,93,0.0,0.0,47,0.00,,---,0.00,VWS V14.01,2013-03-14 07:19:00,
2013-03-14 02:25:00,34.3,16.2,29.21,South,169,0.0,0.0,47,0.00,,---,0.00,VWS V14.01,2013-03-14 07:25:00,
2013-03-14 02:30:00,34.3,16.2,29.18,West,259,0.0,0.0,47,0.00,,---,0.00,VWS V14.01,2013-03-14 07:30:00,
2013-03-14 02:36:00,34.3,15.7,29.18,ESE,118,0.0,0.0,46,0.00,,---,0.00,VWS V14.01,2013-03-14 07:36:00,
2013-03-14 02:41:00,34.3,15.7,29.18,SE,140,0.0,0.0,46,0.00,,---,0.00,VWS V14.01,2013-03-14 07:41:00,
2013-03-14 02:47:00,34.3,15.7,29.18,SE,132,0.0,2.2,46,0.00,,---,0.00,VWS V14.01,2013-03-14 07:47:00,
2013-03-14 02:52:00,34.3,15.7,29.18,SE,130,0.0,0.0,46,0.00,,---,0.00,VWS V14.01,2013-03-14 07:52:00,
2013-03-14 02:57:00,34.2,15.6,29.18,SSE,152,0.0,0.0,46,0.00,,---,0.00,VWS V14.01,2013-03-14 07:57:00,
2013-03-14 03:02:00,34.0,15.9,29.18,South,186,0.0,0.0,47,0.00,,---,0.00,VWS V14.01,2013-03-14 08:02:00,
2013-03-14 03:08:00,34.3,16.2,29.18,ENE,67,0.0,0.0,47,0.00,,---,0.00,VWS V14.01,2013-03-14 08:08:00,
2013-03-14 03:14:00,34.3,15.7,29.18,NE,39,0.0,0.0,46,0.00,,---,0.00,VWS V14.01,2013-03-14 08:14:00,
2013-03-14 03:19:00,34.0,15.4,29.18,NE,39,0.0,0.0,46,0.00,,---,0.00,VWS V14.01,2013-03-14 08:19:00,